INTELSAT 33E DEB, 61992

Orbit data source: Space-Track

INTELSAT 33E DEB, 61992 is space debris in GEO originally from a launch on Wed, 24 Aug 2016 UTC launched from the French Guiana (FRGUI). Debris objects in space refer to the collection of defunct objects orbiting the Earth. Examples of debris include non-operational satellites, rocket bodies, and fragments generated from explosions, collisions, or faulty payload assembly.

Not visible in the next 10 days
Identifier
61992, 2016-053J
Orbit
GEO
Country
Flag of UnknownUnknown / ITSO
Related business
Manufacturer
Boeing/ES
Mission
Spacecraft
Bus & Motor
Unknown
Mass
Unknown
Launch date (UTC)
2016-08-24 (9 years ago)
Launch vehicle
Unknown
Launch site
French Guiana (FRGUI)
Object type
Payload
Rocket body
Debris
Shape & HBR
Unknown shape, 1.1 m
Radar Cross Section
RCS unknown

Expand to show TLE details & history
Last TLE update: 16 hours ago

TLE from 16 hours ago
0 INTELSAT 33E DEB
1 61992U 16053J   25340.68421346 -.00000300  00000-0  00000-0 0  9994
2 61992   1.0678  86.6438 0046517 254.8351 103.3272  1.00794443  4179
Epoch: 2025-12-06T16:25Z
TLE epoch observation values (Epoch: 2025-12-06T16:25:16.042Z)
Latitude
Longitude
123.28639°
Altitude
35,685.971 km
Speed
3.077 km/s
True Right ascension
05h 41m 14s
True Declination
0° 00' 00"
Sunlit
Object was in daylight at epoch
Visualization orbit readout
Latitude
Unknown
Longitude
Unknown
Altitude
Unknown
Speed
Unknown
Apparent Right ascension
Unknown
Apparent Declination
Unknown
Sunlit
N/A
Visualization observer readout
Local Sidereal Time
06:29:07
Azimuth
Unknown
Elevation
Unknown
Doppler factor
Unknown
Orbital elements
Apogee altitude
35,837.246 km
Perigee altitude
35,446.318 km
Semi-major axis
42,019.919 km
Eccentricity
0.00465
Inclination
1.0678°
RAAN
86.6438°
Arg. of periapsis
254.8351°
True anomaly
103.84519°
Mean anomaly
103.3272°
Eccentric anomaly
103.58626°
Mean motion
0.25198 °/min
Orbital period
1,428.7 mins
BSTAR
0
Loading maneuver chart data...
Computing Atmospheric mass density...
Loading historical data...
Loading historical data...
Loading historical data...
Loading historical data...
Loading historical data...
Loading historical data...
Loading historical data...

Documentation

Showing up to 5 results
|